SEREY EKCH-ESGG

Flight info

Callsign SEREY
Flight time 0h 30m
Altitude 24000
Route VEDAR L997 RISMA
Aircraft C700/M-SBDGHM1RWXY/LB2

Departure

Time 2026-04-25 19:11
Airport Copenhagen Kastrup Airport (EKCH)

Arrival

Time 2026-04-25 19:41
Airport Göteborg Landvetter Airport (ESGG)
Time Latitude Longitude Altitude Speed Heading
2026-04-25 18:55 55.61072 12.65385 17 ft 0 kts 341°
2026-04-25 19:07 55.61072 12.65375 17 ft 1 kts 263°
2026-04-25 19:07 55.61062 12.65386 20 ft 5 kts 112°
2026-04-25 19:08 55.61010 12.65403 19 ft 12 kts 275°
2026-04-25 19:08 55.61011 12.65240 19 ft 15 kts 270°
2026-04-25 19:09 55.61039 12.64804 14 ft 0 kts 320°
2026-04-25 19:09 55.61145 12.64757 16 ft 15 kts 349°
2026-04-25 19:10 55.61232 12.64737 16 ft 9 kts 37°
2026-04-25 19:10 55.61240 12.64748 16 ft 0 kts 40°
2026-04-25 19:10 55.61241 12.64750 16 ft 4 kts 40°
2026-04-25 19:11 55.61549 12.65217 12 ft 111 kts 41°
2026-04-25 19:11 55.62224 12.66336 608 ft 145 kts 36°
2026-04-25 19:11 55.63026 12.67664 1527 ft 178 kts 34°
2026-04-25 19:11 55.64046 12.69056 2917 ft 193 kts 26°
2026-04-25 19:12 55.65329 12.69998 4449 ft 210 kts 12°
2026-04-25 19:12 55.66849 12.70270 6137 ft 226 kts 356°
2026-04-25 19:12 55.68454 12.70049 8078 ft 236 kts 354°
2026-04-25 19:12 55.70115 12.69893 10150 ft 240 kts 354°
2026-04-25 19:13 55.71835 12.69670 11680 ft 262 kts 348°
2026-04-25 19:13 55.73561 12.68571 13469 ft 266 kts 334°
2026-04-25 19:13 55.75293 12.67360 15263 ft 267 kts 338°
2026-04-25 19:13 55.77030 12.66242 17098 ft 263 kts 336°
2026-04-25 19:14 55.78736 12.65060 18579 ft 267 kts 336°
2026-04-25 19:14 55.79877 12.64251 19373 ft 266 kts 336°
2026-04-25 19:14 55.82195 12.62635 20843 ft 269 kts 336°
2026-04-25 19:14 55.83969 12.61489 21899 ft 274 kts 340°
2026-04-25 19:15 55.85795 12.60575 22973 ft 277 kts 340°
2026-04-25 19:15 55.87670 12.59614 23832 ft 285 kts 340°
2026-04-25 19:15 55.89673 12.58568 23903 ft 313 kts 340°
2026-04-25 19:15 55.91830 12.57454 23914 ft 340 kts 341°
2026-04-25 19:16 55.94186 12.56251 23909 ft 362 kts 341°
2026-04-25 19:16 55.96533 12.55065 23913 ft 340 kts 341°
2026-04-25 19:16 55.98884 12.53844 23916 ft 355 kts 341°
2026-04-25 19:16 56.01137 12.52680 23912 ft 332 kts 341°
2026-04-25 19:17 56.03366 12.51527 23911 ft 335 kts 341°
2026-04-25 19:17 56.05627 12.50352 23911 ft 339 kts 341°
2026-04-25 19:17 56.07901 12.49174 23911 ft 342 kts 341°
2026-04-25 19:17 56.10198 12.47984 23910 ft 344 kts 341°
2026-04-25 19:18 56.12514 12.46781 23908 ft 346 kts 341°
2026-04-25 19:18 56.14812 12.45586 23910 ft 348 kts 341°
2026-04-25 19:18 56.17147 12.44371 23909 ft 350 kts 341°
2026-04-25 19:18 56.19490 12.43149 23911 ft 351 kts 341°
2026-04-25 19:19 56.21850 12.41918 23909 ft 352 kts 341°
2026-04-25 19:19 56.24211 12.40683 23911 ft 353 kts 342°
2026-04-25 19:19 56.26577 12.39445 23913 ft 354 kts 342°
2026-04-25 19:19 56.28144 12.38624 23913 ft 354 kts 342°
2026-04-25 19:20 56.31293 12.36973 23916 ft 355 kts 342°
2026-04-25 19:20 56.33675 12.35721 23917 ft 355 kts 342°
2026-04-25 19:20 56.36031 12.34481 23921 ft 355 kts 342°
2026-04-25 19:20 56.38385 12.33243 23919 ft 349 kts 342°
2026-04-25 19:21 56.40705 12.32020 23924 ft 345 kts 342°
2026-04-25 19:21 56.45258 12.29613 23927 ft 337 kts 342°
2026-04-25 19:21 56.47513 12.28419 23928 ft 334 kts 342°
2026-04-25 19:22 56.49723 12.27248 23928 ft 332 kts 342°
2026-04-25 19:22 56.51928 12.26077 23929 ft 330 kts 342°
2026-04-25 19:22 56.56305 12.23750 23923 ft 326 kts 342°
2026-04-25 19:23 56.58471 12.22596 23922 ft 324 kts 342°
2026-04-25 19:23 56.62786 12.20294 23926 ft 321 kts 342°
2026-04-25 19:23 56.64933 12.19146 23921 ft 320 kts 342°
2026-04-25 19:24 56.67069 12.18003 23885 ft 320 kts 343°
2026-04-25 19:24 56.69225 12.16847 23583 ft 324 kts 343°
2026-04-25 19:24 56.73479 12.14568 22872 ft 317 kts 343°
2026-04-25 19:25 56.77687 12.12303 22165 ft 313 kts 343°
2026-04-25 19:25 56.79770 12.11180 21813 ft 311 kts 343°
2026-04-25 19:25 56.81849 12.10058 21459 ft 310 kts 343°
2026-04-25 19:26 56.83917 12.08942 21115 ft 309 kts 343°
2026-04-25 19:26 56.85976 12.07828 20780 ft 308 kts 342°
2026-04-25 19:26 56.88007 12.06728 20435 ft 308 kts 342°
2026-04-25 19:26 56.90068 12.05611 19985 ft 309 kts 342°
2026-04-25 19:27 56.92114 12.04502 19494 ft 305 kts 342°
2026-04-25 19:27 56.93458 12.03772 19163 ft 303 kts 342°
2026-04-25 19:27 56.96149 12.02309 18514 ft 300 kts 342°
2026-04-25 19:27 56.98122 12.01234 18004 ft 299 kts 342°
2026-04-25 19:28 57.00128 12.00140 17437 ft 299 kts 342°
2026-04-25 19:28 57.02127 11.99049 16874 ft 300 kts 342°
2026-04-25 19:28 57.04119 11.98022 16279 ft 301 kts 345°
2026-04-25 19:28 57.06203 11.97413 15687 ft 304 kts 350°
2026-04-25 19:29 57.08305 11.96899 15121 ft 306 kts 349°
2026-04-25 19:29 57.10430 11.96342 14556 ft 308 kts 349°
2026-04-25 19:29 57.12550 11.95803 13952 ft 305 kts 349°
2026-04-25 19:29 57.14622 11.95285 13322 ft 301 kts 350°
2026-04-25 19:30 57.16680 11.94762 12861 ft 299 kts 350°
2026-04-25 19:30 57.18767 11.94231 12412 ft 304 kts 350°
2026-04-25 19:30 57.20850 11.93698 12026 ft 306 kts 350°
2026-04-25 19:30 57.22976 11.93160 11623 ft 309 kts 350°
2026-04-25 19:31 57.25115 11.92614 11224 ft 311 kts 351°
2026-04-25 19:31 57.27257 11.92070 10842 ft 304 kts 351°
2026-04-25 19:31 57.29271 11.91558 10453 ft 281 kts 351°
2026-04-25 19:31 57.31134 11.91082 10067 ft 265 kts 351°
2026-04-25 19:32 57.32937 11.90616 9650 ft 252 kts 351°
2026-04-25 19:32 57.34633 11.90183 9232 ft 251 kts 351°
2026-04-25 19:32 57.36380 11.89732 8812 ft 254 kts 351°
2026-04-25 19:32 57.36973 11.89580 8670 ft 254 kts 352°
2026-04-25 19:33 57.39878 11.88834 8001 ft 253 kts 352°
2026-04-25 19:33 57.41580 11.88398 7946 ft 240 kts 352°
2026-04-25 19:33 57.43234 11.87973 7619 ft 240 kts 352°
2026-04-25 19:33 57.44888 11.87543 7275 ft 241 kts 352°
2026-04-25 19:34 57.46530 11.87122 6939 ft 241 kts 352°
2026-04-25 19:34 57.48200 11.86692 6612 ft 241 kts 353°
2026-04-25 19:34 57.49862 11.86640 6264 ft 241 kts 11°
2026-04-25 19:34 57.51308 11.88213 5895 ft 249 kts 42°
2026-04-25 19:35 57.52102 11.91112 5531 ft 260 kts 72°
2026-04-25 19:35 57.52079 11.94512 5174 ft 266 kts 91°
2026-04-25 19:35 57.51769 11.97914 4817 ft 267 kts 94°
2026-04-25 19:35 57.51429 12.01258 4452 ft 264 kts 95°
2026-04-25 19:36 57.51077 12.04523 4069 ft 247 kts 95°
2026-04-25 19:36 57.50732 12.07564 3691 ft 233 kts 94°
2026-04-25 19:36 57.50791 12.10418 3322 ft 214 kts 68°
2026-04-25 19:36 57.51216 12.13015 3094 ft 209 kts 65°
2026-04-25 19:37 57.51793 12.15407 3023 ft 193 kts 42°
2026-04-25 19:37 57.52920 12.16498 3029 ft 184 kts
2026-04-25 19:37 57.54169 12.17092 2967 ft 191 kts 19°
2026-04-25 19:37 57.55402 12.18160 2712 ft 195 kts 21°
2026-04-25 19:38 57.56568 12.19183 2459 ft 171 kts 21°
2026-04-25 19:38 57.57555 12.20065 2228 ft 151 kts 21°
2026-04-25 19:38 57.58476 12.20901 2020 ft 144 kts 21°
2026-04-25 19:38 57.59287 12.21646 1845 ft 110 kts 19°
2026-04-25 19:39 57.59931 12.22206 1703 ft 99 kts 19°
2026-04-25 19:39 57.60541 12.22792 1542 ft 98 kts 21°
2026-04-25 19:39 57.61160 12.23316 1415 ft 102 kts 19°
2026-04-25 19:39 57.61831 12.23926 1259 ft 110 kts 21°
2026-04-25 19:40 57.62525 12.24551 1082 ft 115 kts 21°
2026-04-25 19:40 57.63265 12.25221 929 ft 119 kts 23°
2026-04-25 19:40 57.64003 12.25915 755 ft 120 kts 21°
2026-04-25 19:40 57.64758 12.26594 571 ft 118 kts 21°
2026-04-25 19:41 57.65460 12.27239 491 ft 98 kts 21°
2026-04-25 19:41 57.65945 12.27674 501 ft 58 kts 25°
2026-04-25 19:41 57.66241 12.27945 504 ft 39 kts 28°
2026-04-25 19:41 57.66318 12.28015 505 ft 38 kts 23°
2026-04-25 19:42 57.66667 12.28449 507 ft 33 kts 54°
2026-04-25 19:42 57.66766 12.28710 507 ft 13 kts 60°
2026-04-25 19:42 57.66775 12.28733 507 ft 0 kts 56°
2026-04-25 19:43 57.66786 12.28763 507 ft 10 kts 55°
2026-04-25 19:43 57.66890 12.28874 508 ft 25 kts 26°
2026-04-25 19:43 57.67053 12.29037 508 ft 28 kts 27°
2026-04-25 19:43 57.67227 12.29184 509 ft 25 kts 28°
2026-04-25 19:44 57.67377 12.29322 510 ft 21 kts 26°
2026-04-25 19:44 57.67400 12.29513 510 ft 19 kts 116°
2026-04-25 19:44 57.67361 12.29700 510 ft 13 kts 97°
2026-04-25 19:44 57.67414 12.29832 510 ft 15 kts 25°
2026-04-25 19:45 57.67432 12.29910 510 ft 8 kts 114°
2026-04-25 19:45 57.67425 12.29939 510 ft 0 kts 116°